Location: Aufkirchen
(47.9603°N, 11.3653°E)
Time: 15:31:56
(UTC+01:00)

Courier 1B Rocket - Pass Details

Date: 29 November 2020
Orbit: 920 x 1202 km, 28.2° (Epoch: 17 January)

Event Time Altitude Azimuth Distance (km) Brightness Sun altitude
Rises 06:45:34 0° 227° (SW) 4,090 8.0 -9.1°
Reaches altitude 10° 06:49:48 10° 207° (SSW) 3,114 7.6 -8.4°
Maximum altitude 06:53:59 16° 174° (S) 2,690 7.7 -7.8°
Drops below altitude 10° 06:58:07 10° 141° (SE) 3,052 8.8 -7.1°
Sets 07:02:11 0° 120° (ESE) 3,965 10.8 -6.5°
